User: anonymous   Login
Location: Unspecified
(0.0000°N, 0.0000°E)
Time: 06:13:43
(UTC+00:00)
Language:

Telecom 1A - Orbit

View from above orbital plane
View from above orbital plane
View from above satellite
View from above satellite

Ground track
Ground track

The orbit data is extracted from the following two-line orbital elements,

1 15159U 84081B   18203.39702167 -.00000049 +00000-0 +00000-0 0  9995
2 15159 015.4864 357.3953 0036177 335.4873 200.6793 00.98396750090219
Epoch (UTC): 22 July 2018 09:31:42
Eccentricity: 0.0036177
inclination: 15.4864°
perigee height: 36166 km
apogee height: 36474 km
right ascension of ascending node: 357.3953°
argument of perigee: 335.4873°
revolutions per day: 0.98396750
mean anomaly at epoch: 200.6793°
orbit number at epoch: 9021

The dashed part of the orbit path shows where the satellite is in the earth's shadow,  

DLR